Regional Weather Roundup
Issued by NWS Upton, NY

Current Version | Previous Version | Text Only | Print | Product List | Glossary On
Versions: 1 2 3 4 5 6 7 8 9 10 11 12 13 14 15 16 17 18 19 20 21 22 23 24 25 26 27
000 ASUS41 KOKX 260109 RWROKX REGIONAL WEATHER ROUNDUP NATIONAL WEATHER SERVICE NEW YORK NY 900 PM EDT THU MAY 25 2017 NOTE: "FAIR" INDICATES FEW OR NO CLOUDS BELOW 12,000 FEET WITH NO SIGNIFICANT WEATHER AND/OR OBSTRUCTIONS TO VISIBILITY. NYZ071-072-176-178-NJZ106-104-260200- NEW YORK CITY METRO AREA CITY SKY/WX TMP DP RH WIND PRES REMARKS Central Park CLOUDY 57 56 96 E16 29.52F Wall St Helipt CLOUDY 57 57 100 NE20 29.48F Bronx Bot Gard N/A 55 54 94 E23 29.52F LaGuardia APRT DRIZZLE 57 56 96 NE17 29.49F FOG Kennedy INTL DRZL/FOG 60 60 100 NE13 29.49F VSB 1 Breezy Point NOT AVBL Newark/Liberty DRIZZLE 57 57 100 N15 29.48F FOG Teterboro CLOUDY 58 57 97 NE9G18 29.48F FOG $$ NYZ177-179-078>081-260200- LONG ISLAND NEW YORK CITY SKY/WX TMP DP RH WIND PRES REMARKS Jones Beach NOT AVBL Matinecock PT NOT AVBL Farmingdale LGT RAIN 59 59 100 E8 29.50F FOG MacArthur/ISP FOG 58 58 100 NE10 29.50F VSB 1/4 Shirley FOG 58 58 100 VRB6 29.53F VSB 1 Mt Sinai Harb NOT AVBL Westhampton FOG 57 56 96 NE8 29.55F VSB 1 East Hampton CLOUDY 55 55 97 NE10 29.55F FOG Montauk N/A 55 55 100 NE12 29.58F $$ NYZ052-065-067-260200- HUDSON VALLEY CITY SKY/WX TMP DP RH WIND PRES REMARKS White Plains LGT RAIN 58 56 93 NE12 29.51F FOG Larchmont Harb N/A 55 N/A N/A NE31G37 N/A Croton O-T Hud NOT AVBL Newburgh CLOUDY 57 57 100 NE9 29.57S FOG Montgomery CLOUDY 58 56 93 NE7 29.55S Poughkeepsie CLOUDY 58 54 86 N3 29.55F Albany LGT RAIN 56 54 93 NE6 29.62S FOG $$ NJZ001-105-106-008-010-013-015-019>022-104-260200- NEW JERSEY CITY SKY/WX TMP DP RH WIND PRES REMARKS Newark/Liberty DRIZZLE 57 57 100 N15 29.48F FOG Teterboro CLOUDY 58 57 97 NE9G18 29.48F FOG Caldwell CLOUDY 59 57 93 E12 29.50F FOG Somerville LGT RAIN 59 58 96 N5 29.49F Linden CLOUDY 58 57 94 NE8 29.49F FOG Perth Amboy NOT AVBL Sussex CLOUDY 59 58 96 NE10 29.53F Andover N/A 59 56 89 VRB3 29.52R Trenton LGT RAIN 60 59 96 NE12 29.46F Millville TSTM 58 58 100 W8 29.47R FOG Atlantic City CLOUDY 65 61 87 S3 29.44F Wrightstown CLOUDY 59 58 97 N10 29.44F Toms River LGT RAIN 61 61 100 NE5 29.45F VSB 3/4 Belmar FOG 58 58 100 N6 29.47F VSB 1/2 $$ PAZ047>061-062-071-260200- EASTERN PENNSYLVANIA CITY SKY/WX TMP DP RH WIND PRES REMARKS Philadelphia CLOUDY 61 58 90 NE9 29.46F Allentown CLOUDY 61 57 87 NE6 29.48F Scranton CLOUDY 61 57 87 VRB3 29.52R $$ CTZ002-004>006-009-010-012-RIZ004-006-007-MAZ004-011-015-260200- SOUTHERN NEW ENGLAND IN CT CITY SKY/WX TMP DP RH WIND PRES REMARKS Bradley INTL LGT RAIN 53 52 96 N14 29.63F FOG Hartford CLOUDY 55 54 96 N9 29.61F FOG Danbury CLOUDY 54 54 100 NE9 29.57F FOG Wtrbury/Oxford LGT RAIN 54 48 82 E12G17 29.58F FOG Bridgeport LGT RAIN 59 56 89 NE10 29.54F FOG Meriden CLOUDY 55 54 96 N7 29.58F FOG New Haven CLOUDY 57 55 93 N10 29.55F FOG Chester CLOUDY 55 55 100 NE6 29.57F FOG Groton CLOUDY 57 55 93 NE10 29.58F Wilimantic CLOUDY 56 53 90 NE10 29.63S IN RI CITY SKY/WX TMP DP RH WIND PRES REMARKS Providence DRZL/FOG 53 53 100 N9 29.64S VSB 1 Block Island LGT RAIN N/A N/A N/A NE13 29.60F VSB 1/2 Westerly CLOUDY 57 56 96 NE7 29.60F FOG IN MA CITY SKY/WX TMP DP RH WIND PRES REMARKS Boston DRIZZLE 51 51 100 NE15 29.68F FOG Worcester LGT RAIN 49 47 93 NE12G23 29.67R VSB 1 Westfield LGT RAIN 53 53 100 N8 29.64F FOG Provincetown FOG 53 52 96 E9 29.65F VSB 1 Nantucket LGT RAIN 56 55 97 SE8 29.63S VSB 1/2 $$ ANZ330-335-338-340-345-350-353-355-260200- COASTAL MARINE OBSERVATIONS STATION/POSITION TIME SKY/WX TEMP WIND PRES VSBY WAVE AIR SEA DIR/SP/G HT/PER (UTC) (F) (DEG/KT/KT) (MB) (MI) (FT/S) NY HARB ENTRANCE 2350 58 56 100/ 10/ 12 998.8 5/ 6 20 S FIRE ISLAND 0050 57 54 100/ 8/ 10 997.5 5/ 8 GREAT SOUTH BAY 0030 58 62 70/ 16/ 19 N/A 23 SSW MONTAUK P 2350 54 53 1001.3 5/ 6 15 E BARNEGAT LI 0030 57 N/A 5/ 6 HUDSON CANYON 2350 59 54 150/ 10/ 12 999.6 6/ 8 KINGS POINT 0024 57 57 70/ 5/ 8 999.3 EXECUTION ROCKS 0045 57 N/A CENTRAL LI SOUND NOT AVBL EASTERN LI SOUND NOT AVBL ROBBINS REEF 0024 58 60/ 12/ 16 999.5 $$ >>>>>>>>>>>>>>>>>>>>>>>>>>>> KEY <<<<<<<<<<<<<<<<<<<<<<<<<<< > < > SKY/WX - Sky Condition/Present Weather < > TMP - Temperature in Fahrenheit < > DP - Dew Point in Fahrenheit < > RH - Relative Humidity in Percent < > WIND - Direction (from) and Speed in MPH < > PRES - Mean Sea Level Pressure (inches of Hg) < > WCI - Wind Chill Index < > VSB - VISIBILITY IN MILES < > HX - HEAT INDEX < > TC - TEMPERATURE IN CELSIUS < > VRB - VARIABLE WIND DIRECTION < > < >>>>>>>>>>>>>>>>>>>>>>>>>>>> KEY <<<<<<<<<<<<<<<<<<<<<<<<<<<

USA.gov is the U.S. government's official web portal to all federal, state and local government web resources and services.